User: anonymous
Location: Vancouver
(49.2500°N, 123.1330°W)
Time: 17:39:44
(UTC-07:00)
Language:

Cosmos 676 Rocket - Orbit

View from above orbital plane
View from above orbital plane
View from above satellite
View from above satellite

Ground track
Ground track

The orbit data is extracted from the following two-line orbital elements,

1 07434U 74071B   14109.21492426  .00000327  00000-0  12055-3 0  1891
2 07434 074.0476 174.5215 0021031 006.7067 054.1389 14.36223203 70874
Epoch (UTC): 19 April 2014 05:09:29
Eccentricity: 0.0021031
inclination: 74.0476°
perigee height: 756 km
apogee height: 786 km
right ascension of ascending node: 174.5215°
argument of perigee: 6.7067°
revolutions per day: 14.36223203
mean anomaly at epoch: 54.1389°
orbit number at epoch: 7087

The dashed part of the orbit path shows where the satellite is in the earth's shadow,  

DLR